period_start,C,m1,H,J0,J1,J2,J3,J4,J5,JA,JB,JC,JD,JJ,JK,JN,#
2015-01-17 00:03:02,0.03,1.60,0.00,23.77,27.85,30.49,4.80,27.24,1019.08,2029.02,2800.08,2865.99,3107.02,349.63,347.84,15.05,0000 0000 0000 0000 000000
2015-01-17 00:08:04,0.08,1.60,0.00,23.74,27.85,30.49,4.76,27.05,1019.23,2029.02,2799.77,2865.32,3106.70,349.65,347.36,15.08,0000 0000 0000 0000 000000
2015-01-17 00:13:05,0.04,1.61,0.00,23.72,27.85,30.51,4.79,27.13,1019.55,2029.00,2798.97,2864.96,3106.03,350.00,347.76,15.11,0000 0000 0000 0000 000000
2015-01-17 00:18:06,0.10,1.61,0.00,23.70,27.85,30.50,4.81,27.18,1019.55,2029.01,2798.13,2864.23,3105.48,350.15,347.99,15.14,0000 0000 0000 0000 000000
2015-01-17 00:23:08,0.05,1.61,0.00,23.74,27.85,30.48,4.81,27.23,1019.56,2029.02,2797.44,2863.92,3104.85,350.03,348.00,15.17,0000 0000 0000 0000 000000
2015-01-17 00:28:09,0.09,1.61,0.00,23.74,27.85,30.49,4.83,27.30,1019.48,2029.01,2796.59,2863.10,3104.05,350.15,347.85,15.20,0000 0000 0000 0000 000000
2015-01-17 00:33:11,0.11,1.61,0.00,23.73,27.85,30.51,4.69,27.14,1019.21,2029.00,2795.56,2862.30,3103.21,349.92,347.60,15.23,0000 0000 0000 0000 000000
2015-01-17 00:38:12,0.07,1.62,0.00,23.72,27.85,30.48,4.69,27.34,1019.26,2029.00,2794.68,2861.80,3102.63,349.61,347.37,15.26,0000 0000 0000 0000 000000
2015-01-17 00:43:13,0.06,1.62,0.00,23.70,27.85,30.52,4.72,27.27,1019.54,2029.00,2793.84,2861.03,3101.93,349.67,347.10,15.29,0000 0000 0000 0000 000000
2015-01-17 00:48:14,0.10,1.62,0.00,23.71,27.85,30.52,4.74,27.19,1019.35,2029.00,2793.00,2860.43,3101.10,350.13,347.57,15.32,0000 0000 0000 0000 000000
2015-01-17 00:53:15,0.07,1.63,0.00,23.67,27.86,30.52,4.74,27.19,1019.07,2029.01,2792.03,2859.87,3100.37,349.91,347.68,15.35,0000 0000 0000 0000 000000
2015-01-17 00:58:17,0.09,1.63,0.00,23.69,27.86,30.51,4.75,27.18,1019.08,2029.00,2791.06,2859.07,3099.73,349.86,347.49,15.38,0000 0000 0000 0000 000000
2015-01-17 01:03:18,0.09,1.63,0.00,23.68,27.86,30.53,4.81,27.22,1019.27,2029.00,2790.12,2858.41,3099.01,350.31,348.24,15.40,0000 0000 0000 0000 000000
2015-01-17 01:08:19,0.09,1.63,0.00,23.72,27.86,30.55,4.90,27.24,1019.46,2029.00,2789.12,2857.72,3098.20,350.55,348.36,15.43,0000 0000 0000 0000 000000
2015-01-17 01:13:21,0.09,1.64,0.00,23.73,27.86,30.52,4.76,27.19,1019.42,2029.00,2788.01,2856.95,3097.28,350.15,347.93,15.46,0000 0000 0000 0000 000000
2015-01-17 01:18:22,0.11,1.64,0.00,23.70,27.86,30.53,4.73,27.24,1019.43,2029.00,2786.97,2856.09,3096.43,349.44,347.28,15.49,0000 0000 0000 0000 000000
2015-01-17 01:23:23,0.12,1.64,0.00,23.70,27.86,30.53,4.79,27.28,1019.08,2029.00,2785.88,2855.32,3095.58,349.91,347.84,15.52,0000 0000 0000 0000 000000
2015-01-17 01:28:25,0.13,1.65,0.00,23.69,27.86,30.50,4.77,27.28,1019.06,2029.00,2784.65,2854.45,3094.58,350.05,347.49,15.55,0000 0000 0000 0000 000000
2015-01-17 01:33:26,0.09,1.65,0.00,23.70,27.86,30.53,4.75,27.08,1019.02,2029.00,2783.63,2853.69,3093.78,349.79,347.55,15.58,0000 0000 0000 0000 000000
2015-01-17 01:38:28,0.09,1.65,0.00,23.70,27.86,30.52,4.79,27.30,1018.75,2029.00,2782.37,2852.85,3092.91,349.82,347.40,15.61,0000 0000 0000 0000 000000
2015-01-17 01:43:29,0.10,1.66,0.00,23.72,27.86,30.52,4.82,27.22,1018.80,2029.00,2781.14,2852.02,3092.04,350.34,348.02,15.64,0000 0000 0000 0000 000000
2015-01-17 01:48:30,0.11,1.66,0.00,23.70,27.86,30.50,4.84,27.15,1018.79,2029.00,2780.14,2851.19,3091.14,349.72,347.31,15.67,0000 0000 0000 0000 000000
2015-01-17 01:53:32,0.12,1.66,0.00,23.69,27.86,30.50,4.78,27.41,1018.86,2029.00,2778.97,2850.36,3090.24,350.11,347.88,15.70,0000 0000 0000 0000 000000
2015-01-17 01:58:33,0.11,1.66,0.00,23.70,27.86,30.52,4.75,27.29,1018.65,2029.00,2777.87,2849.60,3089.40,349.71,347.40,15.73,0000 0000 0000 0000 000000
2015-01-17 02:03:35,0.08,1.67,0.00,23.71,27.87,30.52,4.79,27.31,1018.59,2029.00,2776.72,2848.89,3088.62,349.98,347.84,15.76,0000 0000 0000 0000 000000
2015-01-17 02:08:36,0.11,1.67,0.00,23.69,27.87,30.51,4.82,27.49,1018.57,2029.00,2775.63,2848.04,3087.80,349.36,346.99,15.79,0000 0000 0000 0000 000000
2015-01-17 02:13:37,0.11,1.67,0.00,23.73,27.87,30.51,4.86,27.41,1018.69,2029.00,2774.45,2847.17,3086.94,350.09,347.69,15.82,0000 0000 0000 0000 000000
2015-01-17 02:18:38,0.11,1.68,0.00,23.70,27.87,30.51,4.73,27.26,1018.98,2029.00,2773.44,2846.39,3086.07,349.73,347.55,15.84,0000 0000 0000 0000 000000
2015-01-17 02:23:40,0.10,1.68,0.00,23.71,27.87,30.51,4.75,27.48,1018.95,2029.00,2772.41,2845.68,3085.15,350.05,347.55,15.87,0000 0000 0000 0000 000000
2015-01-17 02:28:41,0.09,1.68,0.00,23.69,27.87,30.50,4.88,27.52,1019.02,2029.00,2771.22,2844.82,3084.29,350.03,347.74,15.90,0000 0000 0000 0000 000000
2015-01-17 02:33:42,0.11,1.69,0.00,23.70,27.87,30.51,4.84,27.51,1019.06,2029.00,2769.98,2843.96,3083.29,350.30,347.94,15.93,0000 0000 0000 0000 000000
2015-01-17 02:38:43,0.13,1.69,0.00,23.71,27.87,30.51,4.73,27.29,1019.07,2029.00,2768.69,2842.99,3082.37,349.45,347.10,15.96,0000 0000 0000 0000 000000
2015-01-17 02:43:44,0.12,1.70,0.00,23.69,27.87,30.51,4.81,27.30,1019.07,2029.00,2767.52,2842.00,3081.19,349.54,347.44,15.99,0000 0000 0000 0000 000000
2015-01-17 02:48:45,0.12,1.70,0.00,23.67,27.87,30.51,4.78,27.23,1019.06,2029.00,2766.14,2841.07,3080.15,349.72,347.51,16.02,0000 0000 0000 0000 000000
2015-01-17 02:53:46,0.12,1.70,0.00,23.71,27.87,30.52,4.75,27.35,1018.86,2029.00,2764.86,2840.16,3079.18,349.82,347.44,16.05,0000 0000 0000 0000 000000
2015-01-17 02:58:47,0.13,1.71,0.00,23.69,27.87,30.52,4.83,27.61,1018.64,2029.00,2763.58,2839.26,3078.15,350.50,347.92,16.08,0000 0000 0000 0000 000000
2015-01-17 03:03:48,0.12,1.71,0.00,23.68,27.87,30.51,4.85,27.48,1019.04,2029.00,2762.39,2838.34,3077.12,350.36,348.07,16.11,0000 0000 0000 0000 000000
2015-01-17 03:08:50,0.14,1.71,0.00,23.69,27.87,30.51,4.80,27.57,1019.06,2029.00,2760.84,2837.27,3075.91,350.61,348.13,16.14,0000 0000 0000 0000 000000
2015-01-17 03:13:51,0.13,1.72,0.00,23.66,27.87,30.52,4.79,27.49,1019.06,2029.00,2759.40,2836.25,3074.83,350.41,348.24,16.17,0000 0000 0000 0000 000000
2015-01-17 03:18:52,0.13,1.72,0.00,23.69,27.87,30.53,4.77,27.48,1019.07,2029.00,2757.95,2835.27,3073.77,349.95,347.56,16.20,0000 0000 0000 0000 000000
2015-01-17 03:23:53,0.14,1.73,0.00,23.70,27.87,30.54,4.77,27.38,1019.14,2028.98,2756.54,2834.24,3072.63,350.32,348.16,16.22,0000 0000 0000 0000 000000
2015-01-17 03:28:54,0.14,1.73,0.00,23.70,27.87,30.53,4.77,27.31,1019.45,2028.99,2755.02,2833.22,3071.45,350.30,348.04,16.25,0000 0000 0000 0000 000000
2015-01-17 03:33:56,0.13,1.73,0.00,23.70,27.87,30.50,4.80,27.29,1019.39,2028.99,2753.60,2832.14,3070.41,350.27,348.03,16.28,0000 0000 0000 0000 000000
2015-01-17 03:38:57,0.13,1.74,0.00,23.69,27.87,30.53,4.77,27.43,1019.12,2028.97,2752.04,2831.08,3069.36,350.31,347.94,16.31,0000 0000 0000 0000 000000
2015-01-17 03:43:58,0.13,1.74,0.00,23.69,27.87,30.51,4.89,27.47,1019.45,2028.98,2750.77,2830.07,3068.17,350.14,347.81,16.34,0000 0000 0000 0000 000000
2015-01-17 03:48:59,0.13,1.75,0.00,23.69,27.87,30.56,4.73,27.13,1019.37,2028.98,2749.47,2829.11,3067.13,349.79,347.78,16.37,0000 0000 0000 0000 000000
2015-01-17 03:54:01,0.11,1.75,0.00,23.69,27.87,30.52,4.77,27.21,1019.07,2028.97,2748.13,2828.15,3066.12,349.96,347.82,16.40,0000 0000 0000 0000 000000
2015-01-17 03:59:02,0.14,1.75,0.00,23.67,27.87,30.53,4.70,27.19,1019.07,2028.99,2746.77,2827.18,3065.10,349.31,347.07,16.43,0000 0000 0000 0000 000000
2015-01-17 04:04:04,0.13,1.76,0.00,23.71,27.87,30.52,4.83,27.43,1019.10,2028.97,2745.41,2826.21,3064.03,350.40,348.10,16.46,0000 0000 0000 0000 000000
2015-01-17 04:09:05,0.12,1.76,0.00,23.69,27.87,30.51,4.78,27.23,1019.07,2028.98,2744.08,2825.25,3062.99,349.91,347.51,16.49,0000 0000 0000 0000 000000
2015-01-17 04:14:06,0.13,1.77,0.00,23.67,27.87,30.51,4.70,27.14,1019.06,2028.96,2742.79,2824.32,3061.95,349.37,347.11,16.52,0000 0000 0000 0000 000000
2015-01-17 04:19:07,0.13,1.77,0.00,23.67,27.88,30.53,4.70,27.22,1019.05,2028.98,2741.49,2823.41,3060.92,349.59,347.15,16.55,0000 0000 0000 0000 000000
2015-01-17 04:24:08,0.12,1.77,0.00,23.68,27.88,30.55,4.88,27.27,1019.05,2028.96,2740.12,2822.44,3059.82,350.41,348.10,16.58,0000 0000 0000 0000 000000
2015-01-17 04:29:09,0.13,1.78,0.00,23.69,27.89,30.54,4.78,27.31,1019.04,2028.96,2738.77,2821.47,3058.76,349.91,347.59,16.61,0000 0000 0000 0000 000000
2015-01-17 04:34:11,0.15,1.78,0.00,23.68,27.89,30.53,4.87,27.41,1018.98,2028.97,2737.33,2820.38,3057.55,350.34,348.03,16.63,0000 0000 0000 0000 000000
2015-01-17 04:39:12,0.11,1.79,0.00,23.67,27.90,30.53,4.69,27.10,1019.05,2028.86,2735.71,2819.32,3056.45,349.27,347.00,16.66,0000 0000 0000 0000 000000
2015-01-17 04:44:13,0.15,1.79,0.00,23.67,27.90,30.51,4.73,27.13,1019.02,2028.81,2734.31,2818.19,3055.31,349.67,347.46,16.69,0000 0000 0000 0000 000000
2015-01-17 04:49:15,0.13,1.79,0.00,23.68,27.90,30.55,4.78,27.34,1019.00,2028.86,2732.95,2817.33,3054.25,349.92,347.62,16.72,0000 0000 0000 0000 000000
2015-01-17 04:54:16,0.12,1.80,0.00,23.67,27.90,30.54,4.81,27.26,1019.01,2028.81,2731.51,2816.31,3053.13,349.79,347.50,16.75,0000 0000 0000 0000 000000
2015-01-17 04:59:17,0.13,1.80,0.00,23.66,27.90,30.55,4.83,27.22,1019.49,2028.79,2730.11,2815.41,3052.06,350.25,348.16,16.78,0000 0000 0000 0000 000000
2015-01-17 05:04:19,0.11,1.81,0.00,23.68,27.90,30.58,4.83,27.20,1019.49,2028.76,2728.73,2814.47,3050.99,350.43,348.15,16.81,0000 0000 0000 0000 000000
2015-01-17 05:09:20,0.15,1.81,0.00,23.70,27.90,30.60,4.69,27.14,1019.44,2028.77,2727.38,2813.50,3049.91,349.39,347.30,16.84,0000 0000 0000 0000 000000
2015-01-17 05:14:22,0.15,1.81,0.00,23.68,27.90,30.56,4.74,27.10,1019.43,2028.78,2725.91,2812.47,3048.83,349.94,347.78,16.87,0000 0000 0000 0000 000000
2015-01-17 05:19:23,0.11,1.82,0.00,23.66,27.90,30.55,4.80,27.23,1019.55,2028.65,2724.49,2811.49,3047.77,349.97,348.08,16.90,0000 0000 0000 0000 000000
2015-01-17 05:24:24,0.12,1.82,0.00,23.70,27.90,30.58,4.83,27.46,1019.17,2028.59,2723.04,2810.46,3046.62,350.06,347.90,16.93,0000 0000 0000 0000 000000
2015-01-17 05:29:25,0.17,1.82,0.00,23.66,27.90,30.56,4.81,27.36,1018.61,2028.54,2721.58,2809.50,3045.58,350.03,347.72,16.96,0000 0000 0000 0000 000000
2015-01-17 05:34:26,0.11,1.83,0.00,23.65,27.90,30.57,4.82,27.28,1019.04,2028.72,2720.38,2808.61,3044.58,350.69,348.43,16.99,0000 0000 0000 0000 000000
2015-01-17 05:39:28,0.08,1.83,0.00,23.67,27.90,30.58,4.78,27.08,1019.17,2028.39,2718.81,2807.58,3043.55,350.03,347.85,17.02,0000 0000 0000 0000 000000
2015-01-17 05:44:29,0.11,1.83,0.00,23.67,27.90,30.57,4.74,27.03,1019.07,2028.35,2717.58,2806.77,3042.65,349.77,347.69,17.05,0000 0000 0000 0000 000000
2015-01-17 05:49:30,0.11,1.84,0.00,23.71,27.90,30.59,4.79,27.13,1019.09,2028.29,2716.40,2805.79,3041.57,349.79,347.26,17.07,0000 0000 0000 0000 000000
2015-01-17 05:54:31,0.11,1.84,0.00,23.68,27.90,30.56,4.81,27.04,1019.52,2028.32,2715.22,2804.99,3040.67,349.90,347.78,17.10,0000 0000 0000 0000 000000
2015-01-17 05:59:33,0.13,1.85,0.00,23.66,27.90,30.56,4.78,27.02,1019.55,2028.36,2713.99,2804.10,3039.86,349.88,348.03,17.13,0000 0000 0000 0000 000000
2015-01-17 06:04:34,0.12,1.85,0.00,23.68,27.90,30.56,4.78,27.03,1019.54,2028.37,2712.75,2803.28,3038.72,350.02,347.89,17.16,0000 0000 0000 0000 000000
2015-01-17 06:09:35,0.11,1.85,0.00,23.71,27.90,30.58,4.83,27.19,1019.50,2028.29,2711.47,2802.39,3037.74,350.52,348.23,17.19,0000 0000 0000 0000 000000
2015-01-17 06:14:36,0.09,1.86,0.00,23.74,27.90,30.55,4.72,27.20,1019.54,2028.15,2710.13,2801.45,3036.76,349.65,347.62,17.22,0000 0000 0000 0000 000000
2015-01-17 06:19:38,0.13,1.86,0.00,23.72,27.90,30.56,4.66,26.98,1019.54,2028.17,2708.85,2800.61,3035.80,349.30,347.34,17.25,0000 0000 0000 0000 000000
2015-01-17 06:24:39,0.12,1.86,0.00,23.66,27.90,30.58,4.80,27.18,1019.59,2028.09,2707.52,2799.64,3034.76,350.00,348.00,17.28,0000 0000 0000 0000 000000
2015-01-17 06:29:41,0.13,1.87,0.00,23.67,27.90,30.56,4.72,27.08,1019.60,2028.08,2706.12,2798.68,3033.70,349.19,347.26,17.31,0000 0000 0000 0000 000000
2015-01-17 06:34:42,0.13,1.87,0.00,23.67,27.90,30.58,4.75,27.07,1019.19,2028.07,2704.72,2797.67,3032.65,349.50,347.25,17.34,0000 0000 0000 0000 000000
2015-01-17 06:39:43,0.13,1.87,0.00,23.66,27.90,30.57,4.81,27.43,1019.06,2028.10,2703.31,2796.71,3031.69,349.82,347.53,17.37,0000 0000 0000 0000 000000
2015-01-17 06:44:45,0.12,1.88,0.00,23.67,27.90,30.61,4.83,27.29,1019.07,2028.09,2701.85,2795.84,3030.65,350.36,348.12,17.40,0000 0000 0000 0000 000000
2015-01-17 06:49:46,0.13,1.88,0.00,23.65,27.90,30.58,4.80,27.11,1019.07,2028.10,2700.50,2794.82,3029.62,350.45,348.09,17.43,0000 0000 0000 0000 000000
2015-01-17 06:54:47,0.13,1.89,0.00,23.67,27.90,30.59,4.81,27.25,1019.06,2028.07,2699.00,2793.85,3028.53,350.19,347.83,17.46,0000 0000 0000 0000 000000
2015-01-17 06:59:48,0.14,1.89,0.00,23.66,27.91,30.58,4.76,27.29,1019.07,2028.15,2697.68,2792.87,3027.60,349.81,347.68,17.48,0000 0000 0000 0000 000000
2015-01-17 07:04:50,0.13,1.89,0.00,23.68,27.91,30.57,4.83,27.30,1019.26,2028.15,2696.38,2791.95,3026.56,349.93,347.69,17.51,0000 0000 0000 0000 000000
2015-01-17 07:09:51,0.12,1.90,0.00,23.70,27.92,30.55,4.85,27.18,1019.56,2028.06,2694.95,2790.96,3025.41,349.57,347.43,17.54,0000 0000 0000 0000 000000
2015-01-17 07:14:52,0.14,1.90,0.00,23.68,27.92,30.58,4.76,27.22,1019.31,2028.05,2693.65,2789.96,3024.28,350.33,347.90,17.57,0000 0000 0000 0000 000000
2015-01-17 07:19:53,0.12,1.91,0.00,23.62,27.92,30.58,4.70,26.97,1019.44,2028.06,2692.32,2789.03,3023.37,349.39,347.43,17.60,0000 0000 0000 0000 000000
2015-01-17 07:24:55,0.14,1.91,0.00,23.66,27.92,30.59,4.77,27.02,1019.87,2028.06,2690.89,2788.08,3022.26,350.02,347.67,17.63,0000 0000 0000 0000 000000
2015-01-17 07:29:56,0.14,1.91,0.00,23.68,27.92,30.59,4.78,27.20,1019.70,2028.06,2689.53,2787.15,3021.31,349.87,347.81,17.66,0000 0000 0000 0000 000000
2015-01-17 07:34:57,0.12,1.92,0.00,23.65,27.92,30.59,4.80,27.38,1019.55,2028.06,2688.07,2786.16,3020.28,350.20,347.95,17.69,0000 0000 0000 0000 000000
2015-01-17 07:39:58,0.14,1.92,0.00,23.67,27.92,30.58,4.78,27.33,1019.58,2028.02,2686.60,2785.19,3019.21,350.21,348.12,17.72,0000 0000 0000 0000 000000
2015-01-17 07:45:00,0.13,1.93,0.00,23.64,27.92,30.61,4.81,27.44,1019.55,2028.05,2685.38,2784.14,3018.11,349.61,347.50,17.75,0000 0000 0000 0000 000000
2015-01-17 07:50:01,0.13,1.93,0.00,23.66,27.92,30.60,4.74,27.21,1019.55,2028.09,2684.00,2783.40,3017.22,349.44,347.34,17.78,0000 0000 0000 0000 000000
2015-01-17 07:55:02,0.13,1.93,0.00,23.64,27.92,30.61,4.83,27.25,1019.89,2028.08,2682.57,2782.31,3016.16,350.06,348.17,17.81,0000 0000 0000 0000 000000
2015-01-17 08:00:03,0.13,1.94,0.00,23.64,27.92,30.62,4.74,27.05,1020.03,2028.06,2681.15,2781.25,3015.01,349.73,347.87,17.84,0000 0000 0000 0000 000000
2015-01-17 08:05:04,0.14,1.94,0.00,23.63,27.94,30.64,4.80,27.19,1019.88,2028.04,2679.77,2780.26,3013.91,349.98,348.06,17.87,0000 0000 0000 0000 000000
2015-01-17 08:10:05,0.14,1.95,0.00,23.65,27.94,30.66,4.80,27.32,1019.70,2028.06,2678.23,2779.30,3012.86,349.80,348.01,17.89,0000 0000 0000 0000 000000
2015-01-17 08:15:07,0.15,1.95,0.00,23.64,27.95,30.63,4.78,27.30,1019.98,2028.05,2676.77,2778.23,3011.76,350.15,348.21,17.92,0000 0000 0000 0000 000000
2015-01-17 08:20:08,0.14,1.96,0.00,23.63,27.95,30.63,4.78,27.14,1020.03,2028.04,2675.31,2777.18,3010.58,350.25,348.12,17.95,0000 0000 0000 0000 000000
2015-01-17 08:25:09,0.15,1.96,0.00,23.63,27.95,30.64,4.78,27.24,1020.01,2028.01,2673.71,2776.09,3009.42,349.68,347.65,17.98,0000 0000 0000 0000 000000
2015-01-17 08:30:11,0.15,1.97,0.00,23.62,27.95,30.62,4.81,27.05,1019.98,2028.03,2672.15,2774.93,3008.20,349.91,348.02,18.01,0000 0000 0000 0000 000000
2015-01-17 08:35:12,0.16,1.97,0.00,23.63,27.95,30.63,4.81,27.07,1020.03,2028.02,2670.52,2773.78,3007.07,350.05,348.15,18.04,0000 0000 0000 0000 000000
2015-01-17 08:40:13,0.17,1.97,0.00,23.65,27.95,30.64,4.75,27.23,1019.95,2028.01,2668.86,2772.63,3005.86,349.86,347.96,18.07,0000 0000 0000 0000 000000
2015-01-17 08:45:15,0.15,1.98,0.00,23.65,27.95,30.62,4.84,27.26,1019.56,2028.03,2667.28,2771.58,3004.67,349.73,347.47,18.10,0000 0000 0000 0000 000000
2015-01-17 08:50:16,0.17,1.99,0.00,23.67,27.97,30.61,4.81,27.26,1019.91,2028.01,2665.44,2770.26,3003.35,349.48,347.55,18.13,0000 0000 0000 0000 000000
2015-01-17 08:55:17,0.18,1.99,0.00,23.63,27.97,30.65,4.77,27.31,1020.00,2028.00,2663.64,2768.95,3001.89,349.49,347.70,18.16,0000 0000 0000 0000 000000
2015-01-17 09:00:19,0.17,1.99,0.00,23.62,27.97,30.65,4.78,27.27,1019.98,2028.00,2661.95,2767.78,3000.63,350.21,348.26,18.19,0000 0000 0000 0000 000000
2015-01-17 09:05:20,0.18,2.00,0.00,23.67,27.97,30.65,4.87,27.29,1020.04,2028.00,2660.17,2766.46,2999.32,350.44,348.61,18.22,0000 0000 0000 0000 000000
2015-01-17 09:10:22,0.17,2.01,0.00,23.68,27.97,30.64,4.83,27.14,1020.04,2028.00,2658.40,2765.28,2997.92,349.93,347.99,18.25,0000 0000 0000 0000 000000
2015-01-17 09:15:23,0.18,2.01,0.00,23.67,27.97,30.65,4.75,27.21,1020.03,2028.00,2656.68,2764.04,2996.61,349.70,347.86,18.28,0000 0000 0000 0000 000000
2015-01-17 09:20:24,0.17,2.02,0.00,23.61,27.98,30.67,4.82,27.15,1020.04,2028.00,2654.97,2762.85,2995.40,350.45,348.32,18.30,0000 0000 0000 0000 000000
2015-01-17 09:25:25,0.17,2.02,0.00,23.65,27.99,30.67,4.72,27.11,1020.24,2028.00,2653.22,2761.68,2994.10,349.58,347.81,18.33,0000 0000 0000 0000 000000
2015-01-17 09:30:26,0.17,2.03,0.00,23.66,27.99,30.67,4.76,27.29,1019.86,2028.01,2651.51,2760.52,2992.82,350.37,348.49,18.36,0000 0000 0000 0000 000000
2015-01-17 09:35:27,0.16,2.03,0.00,23.67,28.00,30.68,4.79,27.32,1019.68,2028.00,2649.80,2759.33,2991.60,349.97,347.80,18.39,0000 0000 0000 0000 000000
2015-01-17 09:40:29,0.16,2.04,0.00,23.64,28.00,30.70,4.78,27.35,1019.62,2028.00,2648.03,2758.11,2990.25,349.85,347.83,18.42,0000 0000 0000 0000 000000
2015-01-17 09:45:30,0.16,2.04,0.00,23.65,28.00,30.66,4.79,27.46,1020.03,2028.00,2646.42,2756.90,2988.87,349.83,347.72,18.45,0000 0000 0000 0000 000000
2015-01-17 09:50:31,0.16,2.05,0.00,23.65,28.00,30.68,4.77,27.29,1019.93,2028.00,2644.84,2755.82,2987.75,349.61,347.61,18.48,0000 0000 0000 0000 000000
2015-01-17 09:55:32,0.16,2.05,0.00,23.64,28.00,30.71,4.81,27.38,1020.03,2028.00,2643.17,2754.67,2986.47,349.66,347.76,18.51,0000 0000 0000 0000 000000
2015-01-17 10:00:34,0.16,2.06,0.00,23.62,28.00,30.68,4.82,27.19,1020.03,2028.00,2641.54,2753.50,2985.24,350.05,348.16,18.54,0000 0000 0000 0000 000000
2015-01-17 10:05:35,0.14,2.06,0.00,23.65,28.00,30.70,4.82,27.02,1020.19,2028.00,2640.00,2752.39,2984.04,350.31,348.56,18.57,0000 0000 0000 0000 000000
2015-01-17 10:10:36,0.15,2.06,0.00,23.65,28.00,30.70,4.79,27.08,1020.06,2028.00,2638.50,2751.42,2982.87,349.71,347.82,18.60,0000 0000 0000 0000 000000
2015-01-17 10:15:37,0.16,2.07,0.00,23.65,28.00,30.67,4.75,27.16,1020.12,2028.00,2636.93,2750.43,2981.65,349.59,347.77,18.63,0000 0000 0000 0000 000000
2015-01-17 10:20:39,0.15,2.07,0.00,23.66,28.00,30.69,4.80,27.26,1020.04,2027.99,2635.39,2749.33,2980.45,350.29,348.46,18.66,0000 0000 0000 0000 000000
2015-01-17 10:25:40,0.15,2.08,0.00,23.65,28.00,30.66,4.79,27.15,1019.94,2027.99,2633.77,2748.27,2979.30,349.72,347.87,18.69,0000 0000 0000 0000 000000
2015-01-17 10:30:41,0.16,2.08,0.00,23.66,28.00,30.68,4.71,27.05,1020.06,2027.99,2632.11,2747.12,2978.04,349.83,348.09,18.71,0000 0000 0000 0000 000000
2015-01-17 10:35:43,0.16,2.09,0.00,23.69,28.00,30.70,4.82,27.26,1020.49,2027.99,2630.55,2745.97,2976.81,349.93,348.17,18.74,0000 0000 0000 0000 000000
2015-01-17 10:40:44,0.20,2.09,0.00,23.67,28.00,30.72,4.78,27.26,1020.41,2027.99,2628.84,2744.75,2975.54,349.89,348.28,18.77,0000 0000 0000 0000 000000
2015-01-17 10:45:45,0.15,2.10,0.00,23.68,28.00,30.71,4.82,27.44,1020.05,2027.99,2627.24,2743.67,2974.31,349.99,348.05,18.80,0000 0000 0000 0000 000000
2015-01-17 10:50:46,0.16,2.10,0.00,23.68,28.00,30.70,4.81,27.26,1020.05,2027.99,2625.61,2742.54,2973.02,349.97,348.13,18.83,0000 0000 0000 0000 000000
2015-01-17 10:55:47,0.17,2.11,0.00,23.63,28.00,30.72,4.77,27.27,1019.96,2027.99,2623.83,2741.29,2971.78,349.76,347.70,18.86,0000 0000 0000 0000 000000
2015-01-17 11:00:49,0.15,2.11,0.00,23.64,28.00,30.70,4.87,27.43,1019.57,2027.99,2622.34,2740.18,2970.55,350.26,348.30,18.89,0000 0000 0000 0000 000000
2015-01-17 11:05:50,0.16,2.12,0.00,23.64,28.00,30.71,4.80,27.14,1019.98,2027.99,2620.70,2739.07,2969.37,349.84,347.82,18.92,0000 0000 0000 0000 000000
2015-01-17 11:10:51,0.14,2.12,0.00,23.69,28.00,30.71,4.81,27.26,1020.27,2027.99,2619.14,2737.96,2968.19,350.04,348.17,18.95,0000 0000 0000 0000 000000
2015-01-17 11:15:52,0.16,2.13,0.00,23.65,28.00,30.71,4.79,27.32,1020.50,2027.99,2617.61,2736.91,2967.01,349.91,348.16,18.98,0000 0000 0000 0000 000000
2015-01-17 11:20:53,0.15,2.13,0.00,23.66,28.00,30.72,4.79,27.37,1020.42,2027.99,2616.10,2735.86,2965.85,349.53,347.72,19.01,0000 0000 0000 0000 000000
2015-01-17 11:25:54,0.17,2.14,0.00,23.66,28.00,30.71,4.70,27.38,1020.06,2027.99,2614.58,2734.78,2964.66,349.36,347.61,19.04,0000 0000 0000 0000 000000
2015-01-17 11:30:56,0.15,2.14,0.00,23.63,28.00,30.70,4.74,27.31,1020.05,2027.99,2613.08,2733.73,2963.56,350.18,348.32,19.07,0000 0000 0000 0000 000000
2015-01-17 11:35:57,0.16,2.14,0.00,23.66,28.00,30.69,4.72,27.21,1020.10,2027.99,2611.56,2732.63,2962.33,349.59,347.92,19.10,0000 0000 0000 0000 000000
2015-01-17 11:40:58,0.17,2.15,0.00,23.66,28.00,30.68,4.74,27.27,1020.26,2027.99,2609.85,2731.46,2961.11,349.44,347.77,19.12,0000 0000 0000 0000 000000
2015-01-17 11:45:59,0.15,2.15,0.00,23.68,28.00,30.70,4.84,27.17,1020.51,2027.99,2608.41,2730.43,2959.86,350.24,348.46,19.15,0000 0000 0000 0000 000000
2015-01-17 11:51:00,0.16,2.16,0.00,23.66,28.00,30.70,4.78,27.10,1020.52,2027.99,2606.77,2729.25,2958.67,350.05,348.19,19.18,0000 0000 0000 0000 000000
2015-01-17 11:56:01,0.15,2.17,0.00,23.69,28.00,30.70,4.83,27.03,1020.54,2027.99,2605.21,2728.10,2957.46,349.93,348.22,19.21,0000 0000 0000 0000 000000
2015-01-17 12:01:03,0.16,2.17,0.00,23.67,28.00,30.70,4.78,27.07,1020.53,2027.99,2603.62,2727.02,2956.31,349.60,347.59,19.24,0000 0000 0000 0000 000000
2015-01-17 12:06:04,0.16,2.17,0.00,23.64,28.00,30.66,4.76,27.14,1020.64,2027.99,2602.08,2725.89,2955.01,349.60,348.05,19.27,0000 0000 0000 0000 000000
2015-01-17 12:11:05,0.19,2.18,0.00,23.67,28.00,30.66,4.73,27.03,1020.90,2027.99,2600.38,2724.68,2953.72,349.46,347.81,19.30,0000 0000 0000 0000 000000
2015-01-17 12:16:07,0.17,2.18,0.00,23.69,28.00,30.65,4.78,27.11,1020.87,2027.99,2598.66,2723.55,2952.53,349.69,348.07,19.33,0000 0000 0000 0000 000000
2015-01-17 12:21:08,0.16,2.19,0.00,23.70,28.00,30.67,4.76,27.28,1020.55,2027.99,2597.04,2722.42,2951.24,349.73,347.87,19.36,0000 0000 0000 0000 000000
2015-01-17 12:26:09,0.17,2.20,0.00,23.66,28.00,30.67,4.80,27.24,1020.52,2027.99,2595.26,2721.20,2949.89,349.90,348.08,19.39,0000 0000 0000 0000 000000
2015-01-17 12:31:10,0.18,2.20,0.00,23.68,28.00,30.67,4.71,27.21,1020.40,2027.99,2593.51,2719.94,2948.60,349.18,347.18,19.42,0000 0000 0000 0000 000000
2015-01-17 12:36:11,0.18,2.21,0.00,23.68,28.00,30.70,4.82,27.18,1020.44,2027.99,2591.82,2718.74,2947.37,349.54,347.79,19.45,0000 0000 0000 0000 000000
2015-01-17 12:41:13,0.18,2.21,0.00,23.69,28.00,30.67,4.82,27.26,1020.52,2027.99,2589.97,2717.51,2945.97,350.58,348.50,19.48,0000 0000 0000 0000 000000
2015-01-17 12:46:14,0.16,2.22,0.00,23.66,28.00,30.67,4.75,27.29,1020.41,2027.99,2588.43,2716.42,2944.74,349.53,347.80,19.51,0000 0000 0000 0000 000000
2015-01-17 12:51:15,0.17,2.22,0.00,23.69,28.00,30.69,4.78,27.24,1020.35,2027.99,2586.73,2715.29,2943.57,349.82,348.01,19.53,0000 0000 0000 0000 000000
2015-01-17 12:56:17,0.17,2.23,0.00,23.66,28.00,30.68,4.80,27.18,1020.33,2027.99,2584.98,2714.04,2942.33,350.17,348.35,19.56,0000 0000 0000 0000 000000
2015-01-17 13:01:18,0.18,2.23,0.00,23.66,28.00,30.70,4.82,27.29,1020.14,2027.98,2583.20,2712.82,2941.04,350.05,347.94,19.59,0000 0000 0000 0000 000000